X  Close Overcast throughout the day.
Conditions Temperature Feels Precipitation Wind Wind Direction UV index Pressure
00:00 partly-cloudy-night Mostly Cloudy 10° 0.03 mm 10% 20-41 km/h SW SW - 1018,9
01:00 partly-cloudy-night Mostly Cloudy 9° 0.01 mm 7% 20-42 km/h West West - 1019,1
02:00 cloudy Overcast 9° 0.01 mm 7% 19-43 km/h WSW WSW - 1019,2
03:00 partly-cloudy-night Mostly Cloudy 9° 0.03 mm 8% 18-43 km/h NNW NNW - 1019,1
04:00 partly-cloudy-night Mostly Cloudy 8° 0.07 mm 9% 16-41 km/h West West - 1019,3
05:00 partly-cloudy-night Mostly Cloudy 8° 0.05 mm 9% 16-42 km/h West West - 1019,6
06:00 partly-cloudy-night Mostly Cloudy 8° 0.03 mm 7% 16-42 km/h West West - 1019,9
07:00 partly-cloudy-night Mostly Cloudy 8° 0.02 mm 6% 17-40 km/h West West - 1020,5
08:00 partly-cloudy-day Mostly Cloudy 9° 0.02 mm 7% 18-41 km/h West West - 1020,9
09:00 partly-cloudy-day Mostly Cloudy 10° 0.02 mm 5% 20-42 km/h WNW WNW - 1021,2
10:00 cloudy Overcast 10° 0.02 mm 6% 22-40 km/h West West uv-1 1021,4
11:00 cloudy Overcast 11° 0.02 mm 6% 23-38 km/h West West uv-2 1021,4
12:00 cloudy Overcast 11° 0.03 mm 6% 23-37 km/h West West uv-2 1021,0
13:00 cloudy Overcast 12° 0.03 mm 6% 23-36 km/h West West uv-2 1020,5
14:00 cloudy Overcast 13° 0.04 mm 6% 24-37 km/h NNW NNW uv-2 1020,1
15:00 cloudy Overcast 14° 0.04 mm 5% 24-38 km/h SW SW uv-1 1020,0
16:00 cloudy Overcast 13° 0.05 mm 7% 22-35 km/h West West - 1020,1
17:00 partly-cloudy-day Mostly Cloudy 13° 0.04 mm 6% 20-36 km/h SW SW - 1020,3
18:00 partly-cloudy-night Mostly Cloudy 12° 0.02 mm 4% 19-37 km/h North North - 1020,9
19:00 partly-cloudy-night Mostly Cloudy 11° 0.02 mm 5% 18-38 km/h West West - 1021,5
20:00 partly-cloudy-night Mostly Cloudy 11° 0.04 mm 9% 19-39 km/h West West - 1021,7
21:00 partly-cloudy-night Mostly Cloudy 10° 0.02 mm 7% 19-40 km/h West West - 1022,1
22:00 partly-cloudy-night Mostly Cloudy 10° 0.03 mm 10% 20-42 km/h West West - 1021,9
23:00 partly-cloudy-night Mostly Cloudy 10° 0.03 mm 13% 20-42 km/h West West - 1021,9
00:00 partly-cloudy-night Mostly Cloudy 10° 0.04 mm 14% 20-42 km/h WNW WNW - 1021,8
01:00 cloudy Overcast 10° 0.03 mm 12% 20-42 km/h WNW WNW - 1021,6
02:00 cloudy Overcast 9° 0.02 mm 9% 20-41 km/h WNW WNW - 1021,6
03:00 partly-cloudy-night Mostly Cloudy 9° 0.02 mm 8% 20-41 km/h WNW WNW - 1021,5
04:00 partly-cloudy-night Mostly Cloudy 9° 0.01 mm 6% 20-41 km/h WNW WNW - 1021,7
05:00 partly-cloudy-night Mostly Cloudy 8° 5° 0.01 mm 4% 20-40 km/h WNW WNW - 1021,8
06:00 partly-cloudy-night Mostly Cloudy 8° 0.01 mm 6% 19-39 km/h WNW WNW - 1022,3
07:00 partly-cloudy-night Mostly Cloudy 9° 0.02 mm 7% 19-39 km/h WNW WNW - 1022,7
08:00 partly-cloudy-day Mostly Cloudy 9° 0.02 mm 6% 19-38 km/h WNW WNW - 1023,2
09:00 cloudy Overcast 10° 0.02 mm 6% 20-38 km/h WNW WNW - 1023,7
10:00 cloudy Overcast 10° 0.02 mm 6% 21-38 km/h WNW WNW uv-1 1024,0
11:00 cloudy Overcast 11° 0.02 mm 5% 22-36 km/h WNW WNW uv-2 1024,0
12:00 cloudy Overcast 12° 0.02 mm 6% 22-33 km/h West West uv-2 1023,6
13:00 cloudy Overcast 13° 0.02 mm 6% 22-32 km/h West West uv-2 1023,1
14:00 cloudy Overcast 13° 0.01 mm 6% 22-32 km/h West West uv-2 1022,8
15:00 cloudy Overcast 14° 0.02 mm 6% 21-32 km/h WNW WNW uv-1 1022,6
16:00 cloudy Overcast 13° 0.02 mm 8% 19-31 km/h West West - 1022,8
17:00 cloudy Overcast 12° 0.02 mm 9% 17-32 km/h West West - 1023,2
18:00 cloudy Overcast 11° 0.02 mm 10% 14-33 km/h WNW WNW - 1023,7
19:00 cloudy Overcast 11° 0.02 mm 11% 13-34 km/h WNW WNW - 1024,3
20:00 cloudy Overcast 10° 0.04 mm 14% 13-35 km/h West West - 1024,6
21:00 cloudy Overcast 10° 0.07 mm 18% 13-35 km/h WNW WNW - 1024,7
22:00 cloudy Overcast 10° 0.08 mm 17% 13-35 km/h WNW WNW - 1024,9
23:00 cloudy Overcast 10° 0.04 mm 14% 14-36 km/h WNW WNW - 1024,8
00:00 cloudy Overcast 9° 0.01 mm 5% 15-36 km/h WNW WNW - 1024,9